EW2353 Weather Reports


Display with metric or nautical units.
time (UTC)temp
F
wind
direction
speed
MPH
gust
MPH
rain 1hr
in
rain 24hr
in
rain mn
in
humidity
%
barometer
mb
20260904181326 95 314 0.0 10.0 0.00 0.00 0.00 63 1016.2
20260904180819 94 266 4.0 11.0 0.00 0.00 0.00 59 1016.4
20260904180316 94 265 6.0 11.0 0.00 0.00 0.00 60 1016.5
20260904175829 94 273 5.0 11.0 0.00 0.00 0.00 60 1016.6
20260904175321 94 38 1.0 9.0 0.00 0.00 0.00 62 1016.7
20260904174813 94 278 5.0 8.0 0.00 0.00 0.00 61 1016.8
20260904174327 94 282 3.0 10.0 0.00 0.00 0.00 62 1016.8
20260904173839 94 27 4.0 10.0 0.00 0.00 0.00 63 1016.8
20260904173331 94 244 3.0 8.0 0.00 0.00 0.00 61 1017.0
20260904172843 95 360 1.0 5.0 0.00 0.00 0.00 64 1017.0
20260904172314 95 248 0.0 3.0 0.00 0.00 0.00 63 1017.0
20260904171811 95 326 0.0 4.0 0.00 0.00 0.00 63 1017.0
20260904171323 94 354 1.0 6.0 0.00 0.00 0.00 65 1017.1
20260904170836 95 279 2.0 6.0 0.00 0.00 0.00 64 1017.0
20260904170328 95 307 1.0 5.0 0.00 0.00 0.00 62 1017.0
20260904165821 95 284 0.0 5.0 0.00 0.00 0.00 64 1017.1
20260904165314 94 268 0.0 7.0 0.00 0.00 0.00 64 1017.2
20260904164827 94 360 1.0 7.0 0.00 0.00 0.00 63 1017.2
20260904164319 94 264 1.0 6.0 0.00 0.00 0.00 65 1017.2
20260904163811 94 267 0.0 6.0 0.00 0.00 0.00 65 1017.1
20260904163328 93 261 1.0 6.0 0.00 0.00 0.00 67 1017.2
20260904162821 93 281 1.0 8.0 0.00 0.00 0.00 65 1017.2
20260904162314 93 271 2.0 7.0 0.00 0.00 0.00 67 1017.3
20260904161826 93 270 4.0 7.0 0.00 0.00 0.00 64 1017.3
20260904161339 93 27 3.0 10.0 0.00 0.00 0.00 64 1017.3
20260904160811 93 264 0.0 10.0 0.00 0.00 0.00 64 1017.3
20260904160323 93 285 1.0 7.0 0.00 0.00 0.00 63 1017.3
20260904155835 93 274 1.0 13.0 0.00 0.00 0.00 66 1017.3
20260904155347 92 255 1.0 13.0 0.00 0.00 0.00 65 1017.3
20260904154819 92 277 1.0 9.0 0.00 0.00 0.00 66 1017.3
20260904154316 91 277 0.0 9.0 0.00 0.00 0.00 68 1017.3
20260904153828 91 277 2.0 6.0 0.00 0.00 0.00 66 1017.3
20260904153321 91 291 2.0 8.0 0.00 0.00 0.00 69 1017.3
20260904152814 91 265 1.0 6.0 0.00 0.00 0.00 69 1017.2
20260904152327 90 265 4.0 8.0 0.00 0.00 0.00 67 1017.2
20260904151819 90 252 3.0 8.0 0.00 0.00 0.00 69 1017.1
20260904151332 90 286 3.0 9.0 0.00 0.00 0.00 69 1017.1
20260904150823 90 278 5.0 9.0 0.00 0.00 0.00 68 1017.2
20260904150321 89 227 2.0 6.0 0.00 0.00 0.00 72 1017.1
20260904145814 89 262 3.0 9.0 0.00 0.00 0.00 71 1017.1
20260904145326 89 255 5.0 9.0 0.00 0.00 0.00 69 1017.1
20260904144819 89 249 4.0 8.0 0.00 0.00 0.00 70 1017.0
20260904144312 89 265 2.0 8.0 0.00 0.00 0.00 70 1017.0
20260904143845 88 352 1.0 9.0 0.00 0.00 0.00 72 1017.0
20260904143317 87 257 3.0 9.0 0.00 0.00 0.00 71 1017.0
20260904142830 87 257 4.0 8.0 0.00 0.00 0.00 74 1017.0
20260904142323 87 258 4.0 8.0 0.00 0.00 0.00 73 1017.0
20260904141820 87 264 4.0 8.0 0.00 0.00 0.00 73 1017.1
20260904141312 87 241 2.0 8.0 0.00 0.00 0.00 74 1017.0
20260904140825 87 274 4.0 8.0 0.00 0.00 0.00 74 1016.9
20260904140318 86 250 3.0 6.0 0.00 0.00 0.00 73 1016.9
20260904135851 86 226 2.0 5.0 0.00 0.00 0.00 75 1017.0
20260904135343 86 252 3.0 6.0 0.00 0.00 0.00 76 1016.9
20260904134814 85 252 2.0 6.0 0.00 0.00 0.00 78 1016.9
20260904134327 85 274 2.0 6.0 0.00 0.00 0.00 77 1016.9
20260904133820 84 263 4.0 7.0 0.00 0.00 0.00 77 1017.0
20260904133337 84 238 4.0 7.0 0.00 0.00 0.00 78 1017.0
20260904132829 84 257 3.0 7.0 0.00 0.00 0.00 79 1017.0
20260904132321 83 233 4.0 6.0 0.00 0.00 0.00 80 1017.0
20260904131813 83 233 3.0 6.0 0.00 0.00 0.00 80 1017.0
20260904131326 83 254 2.0 4.0 0.00 0.00 0.00 82 1017.0
20260904130819 82 227 1.0 4.0 0.00 0.00 0.00 82 1017.0
20260904130332 82 243 1.0 4.0 0.00 0.00 0.00 83 1016.9
20260904125824 82 258 0.0 0.0 0.00 0.00 0.00 85 1016.9
20260904125317 81 250 0.0 0.0 0.00 0.00 0.00 86 1017.1
20260904124814 81 228 0.0 0.0 0.00 0.00 0.00 88 1017.0
20260904124326 80 228 0.0 0.0 0.00 0.00 0.00 90 1017.0
20260904123819 79 228 0.0 1.0 0.00 0.00 0.00 89 1017.0
20260904123312 78 228 0.0 1.0 0.00 0.00 0.00 90 1016.9
20260904122825 78 228 0.0 1.0 0.00 0.00 0.00 92 1016.8
20260904122338 77 228 0.0 0.0 0.00 0.00 0.00 92 1016.8
20260904121850 76 229 0.0 0.0 0.00 0.00 0.00 93 1016.8
20260904121322 76 229 0.0 0.0 0.00 0.00 0.00 95 1016.7
20260904120814 75 229 0.0 0.0 0.00 0.00 0.00 96 1016.8
20260904120331 74 228 0.0 0.0 0.00 0.00 0.00 97 1016.6
20260904115823 74 228 0.0 0.0 0.00 0.00 0.00 97 1016.6
20260904115316 73 229 0.0 0.0 0.00 0.00 0.00 97 1016.6
20260904114828 72 229 0.0 0.0 0.00 0.00 0.00 97 1016.5
20260904114321 72 229 0.0 0.0 0.00 0.00 0.00 97 1016.4
20260904113834 72 229 0.0 0.0 0.00 0.00 0.00 97 1016.4
20260904113325 71 229 0.0 0.0 0.00 0.00 0.00 97 1016.3
20260904112838 71 228 0.0 0.0 0.00 0.00 0.00 97 1016.3
20260904112327 71 228 0.0 0.0 0.00 0.00 0.00 97 1016.3
20260904111841 71 228 0.0 0.0 0.00 0.00 0.00 97 1016.2
20260904111316 70 228 0.0 0.0 0.00 0.00 0.00 97 1016.1
20260904110829 71 229 0.0 0.0 0.00 0.00 0.00 97 1016.0
20260904110321 71 229 0.0 0.0 0.00 0.00 0.00 97 1015.9
20260904105834 71 228 0.0 0.0 0.00 0.00 0.00 97 1015.8
20260904105325 71 228 0.0 0.0 0.00 0.00 0.00 97 1015.7
20260904104818 71 229 0.0 0.0 0.00 0.00 0.00 97 1015.7
20260904104311 71 229 0.0 0.0 0.00 0.00 0.00 97 1015.5
20260904103824 71 229 0.0 0.0 0.00 0.00 0.00 97 1015.6
20260904103317 71 229 0.0 0.0 0.00 0.00 0.00 97 1015.6
20260904102814 71 228 0.0 0.0 0.00 0.00 0.00 97 1015.6
20260904102326 71 228 0.0 0.0 0.00 0.00 0.00 97 1015.6
20260904101820 71 229 0.0 0.0 0.00 0.00 0.00 97 1015.6
20260904101312 71 229 0.0 0.0 0.00 0.00 0.00 97 1015.7
20260904100825 71 228 0.0 0.0 0.00 0.00 0.00 97 1015.7
20260904100318 71 229 0.0 0.0 0.00 0.00 0.00 97 1015.6
20260904095811 71 229 0.0 0.0 0.00 0.00 0.00 97 1015.7
20260904095323 72 229 0.0 0.0 0.00 0.00 0.00 97 1015.7
20260904094820 72 229 0.0 0.0 0.00 0.00 0.00 97 1015.7
20260904094333 72 229 0.0 0.0 0.00 0.00 0.00 97 1015.7
20260904093825 72 229 0.0 0.0 0.00 0.00 0.00 97 1015.7
20260904093318 72 229 0.0 0.0 0.00 0.00 0.00 97 1015.7
20260904092811 72 229 0.0 0.0 0.00 0.00 0.00 97 1015.6
20260904092323 72 228 0.0 0.0 0.00 0.00 0.00 97 1015.7
20260904091816 72 229 0.0 0.0 0.00 0.00 0.00 97 1015.7
20260904091349 73 229 0.0 0.0 0.00 0.00 0.00 97 1015.7
20260904090821 73 228 0.0 0.0 0.00 0.00 0.00 97 1015.8
20260904090318 73 229 0.0 0.0 0.00 0.00 0.00 96 1015.8
20260904085811 73 228 0.0 0.0 0.00 0.00 0.00 96 1015.8
20260904085324 73 228 0.0 0.0 0.00 0.00 0.00 96 1015.7
20260904084817 73 228 0.0 0.0 0.00 0.00 0.00 96 1015.7
20260904084330 73 229 0.0 0.0 0.00 0.00 0.00 96 1015.7
20260904083822 73 229 0.0 0.0 0.00 0.00 0.00 96 1015.7
20260904083315 73 229 0.0 0.0 0.00 0.00 0.00 96 1015.7
20260904082812 74 229 0.0 0.0 0.00 0.00 0.00 96 1015.7
20260904082325 74 229 0.0 0.0 0.00 0.00 0.00 96 1015.8
20260904081838 74 229 0.0 0.0 0.00 0.00 0.00 96 1015.8
20260904081310 74 228 0.0 0.0 0.00 0.00 0.00 96 1015.7
20260904080822 74 229 0.0 0.0 0.00 0.00 0.00 96 1015.7
20260904080315 74 229 0.0 0.0 0.00 0.00 0.00 96 1015.6
20260904075828 74 229 0.0 0.0 0.00 0.00 0.00 96 1015.8
20260904075321 74 228 0.0 0.0 0.00 0.00 0.00 96 1015.8
20260904074814 74 229 0.0 0.0 0.00 0.00 0.00 96 1015.8
20260904074311 75 229 0.0 0.0 0.00 0.00 0.00 96 1015.8
20260904073844 75 229 0.0 0.0 0.00 0.00 0.00 96 1015.8
20260904073316 75 229 0.0 0.0 0.00 0.00 0.00 96 1015.8
20260904072829 75 229 0.0 1.0 0.00 0.00 0.00 96 1016.0
20260904072341 74 229 0.0 1.0 0.00 0.00 0.00 96 1016.0
20260904071813 74 236 0.0 0.0 0.00 0.00 0.00 97 1016.0
20260904071326 74 236 0.0 0.0 0.00 0.00 0.00 96 1016.0
20260904070818 74 235 0.0 0.0 0.00 0.00 0.00 96 1016.1
20260904070331 74 235 0.0 0.0 0.00 0.00 0.00 97 1016.1
20260904065824 74 236 0.0 0.0 0.00 0.00 0.00 97 1016.1
20260904065321 73 236 0.0 0.0 0.00 0.00 0.00 96 1016.2
20260904064813 73 236 0.0 0.0 0.00 0.00 0.00 96 1016.2
20260904064326 73 236 0.0 0.0 0.00 0.00 0.00 97 1016.3
20260904063819 73 235 0.0 0.0 0.00 0.00 0.00 96 1016.3
20260904063332 73 236 0.0 0.0 0.00 0.00 0.00 96 1016.3
20260904062824 73 236 0.0 0.0 0.00 0.00 0.00 96 1016.4
20260904062317 73 235 0.0 0.0 0.00 0.00 0.00 96 1016.4
20260904061830 73 235 0.0 0.0 0.00 0.00 0.00 96 1016.3
20260904061326 73 236 0.0 0.0 0.00 0.00 0.00 96 1016.3
20260904060819 73 236 0.0 0.0 0.00 0.00 0.00 96 1016.4
20260904060312 73 236 0.0 0.0 0.00 0.00 0.00 96 1016.5
20260904055824 73 235 0.0 0.0 0.00 0.00 0.00 96 1016.4
20260904055317 73 235 0.0 0.0 0.00 0.00 0.00 96 1016.4
20260904054830 73 236 0.0 0.0 0.00 0.00 0.00 96 1016.5
20260904054322 73 235 0.0 0.0 0.00 0.00 0.00 96 1016.5
20260904053815 73 236 0.0 0.0 0.00 0.00 0.00 96 1016.5
20260904053312 73 236 0.0 0.0 0.00 0.00 0.00 96 1016.4
20260904052825 73 235 0.0 0.0 0.00 0.00 0.00 96 1016.4
20260904052317 73 236 0.0 0.0 0.00 0.00 0.00 96 1016.4
20260904051830 73 236 0.0 0.0 0.00 0.00 0.00 96 1016.4
20260904051322 73 236 0.0 0.0 0.00 0.00 0.00 96 1016.4
20260904050815 73 236 0.0 0.0 0.00 0.00 0.00 96 1016.4
20260904050348 73 235 0.0 0.0 0.00 0.00 0.00 95 1016.4
20260904045820 73 236 0.0 0.0 0.00 0.00 0.00 95 1016.4
20260904045317 73 235 0.0 0.0 0.00 0.00 0.00 95 1016.4
20260904044810 74 235 0.0 0.0 0.00 0.00 0.00 95 1016.3
20260904044323 74 235 0.0 0.0 0.00 0.00 0.00 95 1016.4
20260904043836 74 235 0.0 0.0 0.00 0.00 0.00 95 1016.4
20260904043327 74 235 0.0 0.0 0.00 0.00 0.00 95 1016.4
20260904042820 74 235 0.0 0.0 0.00 0.00 0.00 95 1016.4
20260904042313 74 236 0.0 0.0 0.00 0.00 0.00 95 1016.3
20260904041826 74 235 0.0 0.0 0.00 0.00 0.00 95 1016.3
20260904041319 74 236 0.0 0.0 0.00 0.00 0.00 95 1016.3
20260904040812 74 236 0.0 0.0 0.00 0.00 0.00 95 1016.3
20260904040324 74 235 0.0 0.0 0.00 0.00 0.00 95 1016.2
20260904035817 74 236 0.0 0.0 0.00 0.00 0.00 95 1016.3
20260904035310 74 236 0.0 0.0 0.00 0.00 0.00 95 1016.2
20260904034823 74 236 0.0 0.0 0.00 0.00 0.00 94 1016.2
20260904034316 74 235 0.0 0.0 0.00 0.00 0.00 94 1016.2
20260904033828 75 235 0.0 0.0 0.00 0.00 0.00 94 1016.2
20260904033320 75 235 0.0 0.0 0.00 0.00 0.00 94 1016.2
20260904032816 75 235 0.0 0.0 0.00 0.00 0.00 94 1016.2
20260904032329 75 236 0.0 0.0 0.00 0.00 0.00 94 1016.2
20260904031822 75 235 0.0 0.0 0.00 0.00 0.00 94 1016.2
20260904031314 75 235 0.0 0.0 0.00 0.00 0.00 94 1016.3
20260904030827 75 235 0.0 0.0 0.00 0.00 0.00 94 1016.3
20260904030320 75 235 0.0 0.0 0.00 0.00 0.00 95 1016.3
20260904025812 75 236 0.0 0.0 0.00 0.00 0.00 95 1016.4
20260904025324 75 236 0.0 0.0 0.00 0.00 0.00 95 1016.3
20260904024822 75 236 0.0 0.0 0.00 0.00 0.00 95 1016.2
20260904024314 75 236 0.0 0.0 0.00 0.00 0.00 95 1016.3
20260904023847 75 236 0.0 0.0 0.00 0.00 0.00 96 1016.4
20260904023319 75 236 0.0 0.0 0.00 0.00 0.00 96 1016.4
20260904022832 75 236 0.0 0.0 0.00 0.00 0.00 96 1016.4
20260904022323 75 236 0.0 0.0 0.00 0.00 0.00 95 1016.3
20260904021816 75 236 0.0 0.0 0.00 0.00 0.00 95 1016.3
20260904021329 75 236 0.0 0.0 0.00 0.00 0.00 95 1016.3
20260904020822 75 236 0.0 0.0 0.00 0.00 0.00 94 1016.3
20260904020319 75 235 0.0 0.0 0.00 0.00 0.00 94 1016.3
20260904015812 75 235 0.0 0.0 0.00 0.00 0.00 94 1016.4
20260904015344 76 236 0.0 0.0 0.00 0.00 0.00 94 1016.4
20260904014816 76 236 0.0 0.0 0.00 0.00 0.00 94 1016.5
20260904014328 76 235 0.0 0.0 0.00 0.00 0.00 93 1016.5
20260904013821 76 236 0.0 0.0 0.00 0.00 0.00 93 1016.6
20260904013333 76 236 0.0 0.0 0.00 0.00 0.00 93 1016.5
20260904012825 77 235 0.0 0.0 0.00 0.00 0.00 93 1016.5
20260904012317 77 236 0.0 0.0 0.00 0.00 0.00 92 1016.5
20260904011835 77 236 0.0 0.0 0.00 0.00 0.00 92 1016.5
20260904011327 78 236 0.0 0.0 0.00 0.00 0.00 92 1016.4
20260904010820 78 236 0.0 0.0 0.00 0.00 0.00 92 1016.4
20260904010312 78 235 0.0 0.0 0.00 0.00 0.00 91 1016.4
20260904005825 78 236 0.0 0.0 0.00 0.00 0.00 90 1016.3
20260904005318 79 235 0.0 0.0 0.00 0.00 0.00 90 1016.2
20260904004811 79 236 0.0 0.0 0.00 0.00 0.00 89 1016.1
20260904004324 80 236 0.0 0.0 0.00 0.00 0.00 89 1016.1
20260904003837 80 236 0.0 0.0 0.00 0.00 0.00 88 1016.0
20260904003332 80 236 0.0 0.0 0.00 0.00 0.00 87 1015.9
20260904002823 81 235 0.0 0.0 0.00 0.00 0.00 87 1015.9
20260904002316 82 235 0.0 0.0 0.00 0.00 0.00 85 1015.9
20260904001829 83 236 0.0 0.0 0.00 0.00 0.00 84 1015.8
20260904001322 84 235 0.0 0.0 0.00 0.00 0.00 82 1015.8
20260904000815 84 235 0.0 0.0 0.00 0.00 0.00 82 1015.9
20260904000328 85 235 0.0 0.0 0.00 0.00 0.00 80 1015.8
20260903235820 87 235 0.0 0.0 0.00 0.00 0.00 78 1015.8
20260903235317 88 235 0.0 0.0 0.00 0.00 0.00 77 1015.8
20260903234810 90 235 0.0 0.0 0.00 0.00 0.00 74 1015.7
20260903234323 92 236 0.0 0.0 0.00 0.00 0.00 70 1015.8
20260903233816 93 236 0.0 0.0 0.00 0.00 0.00 68 1015.7
20260903233329 93 236 0.0 0.0 0.00 0.00 0.00 67 1015.7
20260903232821 93 235 0.0 0.0 0.00 0.00 0.00 65 1015.7
20260903232313 93 235 0.0 0.0 0.00 0.00 0.00 67 1015.6
20260903231826 93 235 0.0 0.0 0.00 0.00 0.00 67 1015.7
20260903231323 92 236 0.0 1.0 0.00 0.00 0.00 67 1015.6
20260903230815 92 235 0.0 1.0 0.00 0.00 0.00 67 1015.5
20260903230328 92 235 0.0 2.0 0.00 0.00 0.00 66 1015.5
20260903225841 92 235 1.0 2.0 0.00 0.00 0.00 64 1015.5
20260903225312 92 242 0.0 4.0 0.00 0.00 0.00 65 1015.6
20260903224825 92 252 1.0 4.0 0.00 0.00 0.00 63 1015.6
20260903224318 92 248 0.0 3.0 0.00 0.00 0.00 65 1015.6
20260903223831 92 159 1.0 5.0 0.00 0.00 0.00 65 1015.5
20260903223323 92 274 2.0 5.0 0.00 0.00 0.00 63 1015.5
20260903222836 92 244 3.0 6.0 0.00 0.00 0.00 63 1015.4
20260903222332 92 272 2.0 6.0 0.00 0.00 0.00 62 1015.4
20260903221824 92 266 3.0 5.0 0.00 0.00 0.00 61 1015.4
20260903221317 92 251 2.0 7.0 0.00 0.00 0.00 62 1015.3
20260903220829 92 248 3.0 8.0 0.00 0.00 0.00 62 1015.2
20260903220321 92 278 5.0 8.0 0.00 0.00 0.00 61 1015.2
20260903215814 92 279 4.0 9.0 0.00 0.00 0.00 62 1015.2
20260903215327 92 267 5.0 9.0 0.00 0.00 0.00 61 1015.1
20260903214820 92 219 3.0 9.0 0.00 0.00 0.00 62 1015.0
20260903214313 92 274 6.0 9.0 0.00 0.00 0.00 61 1015.0
20260903213846 92 230 4.0 7.0 0.00 0.00 0.00 63 1015.0
20260903213318 92 259 5.0 10.0 0.00 0.00 0.00 61 1015.0
20260903212831 92 249 5.0 10.0 0.00 0.00 0.00 62 1015.0
20260903212323 93 253 5.0 9.0 0.00 0.00 0.00 61 1015.0
20260903211815 93 260 5.0 9.0 0.00 0.00 0.00 60 1015.0
20260903211329 93 282 4.0 10.0 0.00 0.00 0.00 61 1015.1
20260903210842 93 251 7.0 10.0 0.00 0.00 0.00 59 1015.2
20260903210314 93 255 5.0 9.0 0.00 0.00 0.00 60 1015.1
20260903205826 93 239 5.0 8.0 0.00 0.00 0.00 59 1015.2
20260903205322 93 205 3.0 11.0 0.00 0.00 0.00 61 1015.2
20260903204815 93 259 6.0 11.0 0.00 0.00 0.00 60 1015.3
20260903204328 92 224 4.0 9.0 0.00 0.00 0.00 60 1015.3
20260903203821 93 267 5.0 9.0 0.00 0.00 0.00 59 1015.4
20260903203313 93 289 6.0 9.0 0.00 0.00 0.00 57 1015.4
20260903202826 93 266 5.0 10.0 0.00 0.00 0.00 59 1015.5
20260903202319 93 264 4.0 12.0 0.00 0.00 0.00 58 1015.6
20260903201812 93 260 6.0 12.0 0.00 0.00 0.00 57 1015.7
20260903201345 93 271 5.0 10.0 0.00 0.00 0.00 58 1015.8
20260903200821 93 282 4.0 9.0 0.00 0.00 0.00 60 1015.9
20260903200314 93 212 5.0 8.0 0.00 0.00 0.00 59 1015.9
20260903195827 93 247 2.0 11.0 0.00 0.00 0.00 60 1016.0
20260903195340 93 282 7.0 11.0 0.00 0.00 0.00 57 1016.1
20260903194811 93 210 4.0 11.0 0.00 0.00 0.00 60 1016.2
20260903194324 93 276 7.0 11.0 0.00 0.00 0.00 59 1016.2
20260903193817 93 229 4.0 10.0 0.00 0.00 0.00 59 1016.3
20260903193310 93 248 5.0 10.0 0.00 0.00 0.00 60 1016.4
20260903192842 93 214 5.0 10.0 0.00 0.00 0.00 61 1016.4
20260903192318 93 281 4.0 10.0 0.00 0.00 0.00 59 1016.5
20260903191811 93 258 4.0 10.0 0.00 0.00 0.00 61 1016.5
20260903191324 93 273 4.0 10.0 0.00 0.00 0.00 61 1016.6
20260903190817 93 216 2.0 10.0 0.00 0.00 0.00 62 1016.7
20260903190310 93 213 4.0 9.0 0.00 0.00 0.00 62 1016.6
20260903185843 93 187 4.0 12.0 0.00 0.00 0.00 60 1016.6
20260903185315 93 278 5.0 12.0 0.00 0.00 0.00 60 1016.6
20260903184827 93 250 6.0 11.0 0.00 0.00 0.00 61 1016.7
20260903184340 93 265 6.0 10.0 0.00 0.00 0.00 60 1016.7
20260903183816 93 261 5.0 9.0 0.00 0.00 0.00 61 1016.8
20260903183329 93 280 2.0 9.0 0.00 0.00 0.00 59 1016.8
20260903182822 93 236 5.0 12.0 0.00 0.00 0.00 61 1016.8
20260903182335 93 242 7.0 12.0 0.00 0.00 0.00 60 1016.8
20260903181827 93 240 5.0 11.0 0.00 0.00 0.00 61 1016.9